Regional Weather Roundup
Issued by NWS Wakefield, VA

Home | Current Version | Previous Version | Text Only | Print | Product List | Glossary Off
Versions: 1 2 3 4 5 6 7 8 9 10 11 12 13 14 15 16 17 18 19 20 21 22 23 24 25 26 27 28

000
ASUS41 KAKQ 291615
RWRAKQ

REGIONAL WEATHER ROUNDUP
NATIONAL WEATHER SERVICE WAKEFIELD VA
1200 PM EDT FRI APR 29 2016

Note: "fair" indicates few or no clouds below 12,000 feet with no
significant weather and/or obstructions to visibility. * = Denotes
station may not report precipitation (e.g., rain,snow,etc.),
thunder or fog.

VAZ042-051-052>054-056-291700-
NORTHERN VIRGINIA

CITY           SKY/WX    TMP DP  RH WIND       PRES   REMARKS
WASH NATIONAL  CLOUDY    51  48  89 NE8       30.07F
DULLES         CLOUDY    49  46  90 E6        30.06F FOG
FORT BELVOIR   CLOUDY    51  47  86 VRB1      30.07S
QUANTICO       CLOUDY    52  49  89 E7        30.07F
FREDERICKSBRG* CLOUDY    52  52 100 N3        30.06R
STAFFORD*      CLOUDY    51  48  90 E3        30.10S
WARRENTON      CLOUDY    52  46  81 NE3       30.05S HAZE
CULPEPER*      CLOUDY    52  49  91 CALM      30.06S FOG
MANASSAS*      CLOUDY    52  50  93 CALM      30.07S FOG
LEESBURG*      CLOUDY    50  50 100 E6        30.06F FOG
WINCHESTER     CLOUDY    50  46  87 CALM      30.03F FOG
FRONT ROYAL*   CLOUDY    50  48  93 NE3       30.02F
LURAY*         CLOUDY    52  52 100 N5        30.01F
$$

VAZ048-049-060>072-079>083-291700-
CENTRAL AND SOUTH CENTRAL VIRGINIA

CITY           SKY/WX    TMP DP  RH WIND       PRES   REMARKS
RICHMOND       CLOUDY    53  50  89 CALM      30.04S
CHESTERFIELD*  CLOUDY    54  41  62 NE3       30.06R
PETERSBURG*    CLOUDY    56  56 100 NE6       30.04S
HANOVER        CLOUDY    53  49  86 N3        30.06S
TAPPAHANNOCK*  CLOUDY    55  53  94 NE3       30.05S
QUINTON*       CLOUDY    54  51  92 NE5       30.04S
CHARLOTTSVILLE CLOUDY    53  49  86 NE8       30.03F
GORDONSVILLE*  CLOUDY    51  51  98 NE5       30.04F FOG
ORANGE*        CLOUDY    52  52 100 CALM      30.06S FOG
LOUISA*        CLOUDY    55  54  94 E3        30.03F FOG
BUMPASS*       CLOUDY    51  50  95 CALM      30.05S
FARMVILLE*     CLOUDY    57  57 100 NE6       30.02S FOG
CREWE*         CLOUDY    55  55 100 CALM      30.02F
FORT PICKETT*  NOT AVBL
CHASE CITY*    CLOUDY    59  58  94 E5        30.01S
CLARKSVILLE*   CLOUDY    63  59  88 E6        30.00F
SOUTH HILL*    CLOUDY    56  55  97 CALM      30.08S
LAWRENCEVILLE* CLOUDY    56  55  96 NE3       30.03S
EMPORIA*       CLOUDY    55  54  94 CALM      30.04F
$$

VAZ088>098-291700-
SOUTHEAST VIRGINIA

CITY           SKY/WX    TMP DP  RH WIND       PRES   REMARKS
NORFOLK        CLOUDY    56  53  90 N8        30.03S FOG
VIRGINIA BEACH CLOUDY    60  54  80 N8        30.02S FOG
NORFOLK NAVAL  CLOUDY    57  54  89 NE5       30.04F FOG
WEST POINT*    CLOUDY    56  53  90 NE5       30.05F
SALUDA*        CLOUDY    54  53  97 NE5       30.03F
NEWPORT NEWS   CLOUDY    57  54  89 NE8       30.03F
LANGLEY AFB    CLOUDY    56  55  94 NE8       30.02F
FORT EUSTIS    CLOUDY    56  56 100 NE7       30.01F
WILLIAMSBURG*  FAIR      57  57 100 CALM      30.03F
HR EXEC AP*    CLOUDY    59  55  88 NE7       30.04F
FRANKLIN*      CLOUDY    56  54  91 N6        30.04S
US460-WAKEFLD  CLOUDY    58  53  84 VRB3      30.03S
$$

VAZ020-022-025-037-045-291700-
WEST CENTRAL AND SOUTHWEST VIRGINIA

CITY           SKY/WX    TMP DP  RH WIND       PRES   REMARKS
STAUNTON*      CLOUDY   N/A N/A N/A CALM      30.01F HAZE
WAYNESBORO*    CLOUDY    60  57  89 MISG      29.99F
HOT SPRINGS VA PTSUNNY   62  47  57 W14G22    30.03R
LYNCHBURG      FAIR      66  58  75 CALM      30.00F
DANVILLE       FAIR      71  59  65 VRB3      29.98F
SOUTH BOSTON*  CLOUDY    63  60  87 E5        30.00F
MARTINSVILLE   PTSUNNY   71  57  61 CALM      30.01S
ROANOKE        FAIR      72  55  55 VRB5      30.00S
BLACKSBURG     FAIR      70  52  52 W9G17     30.06R
DUBLIN*        FAIR      71  48  43 W10G24    30.06R
MARION*        FAIR      70  47  43 W7G20     30.09R
HILLSVILLE*    FAIR      67  47  49 W14G20    30.05R
RICHLANDS*     FAIR      68  51  53 W12G18    30.08S
WISE*          FAIR      70  34  26 NW8       30.09F
ABINGDON*      FAIR      71  50  46 NW5       30.07F
$$

MDZ021>025-VAZ099-100-291700-
SOUTHERN MARYLAND AND THE DELMARVA PENINSULA

CITY           SKY/WX    TMP DP  RH WIND       PRES   REMARKS
PATUXENT RIVER DRIZZLE   53  50  89 NE7       30.04F FOG
BAY BRIDGE APT NOT AVBL
LEONARDTOWN    CLOUDY    52  48  87 CALM      30.06F
DOVER          DRIZZLE   50  50 100 NE6       30.06F FOG
GEORGETOWN     CLOUDY    51  48  89 NE13      30.06F
EASTON         CLOUDY   N/A N/A N/A E6        30.10  FOG
CAMBRIDGE      CLOUDY    52  50  93 NE7       30.05F
SALISBURY      CLOUDY    52  49  89 NE9       30.05S
OCEAN CITY     CLOUDY    53  48  83 NE13G20   30.05R
WALLOPS ISLAND CLOUDY    55  50  83 N9        30.04R
ACCOMACK*      CLOUDY    54 -33   2 N3        30.03S HAZE
$$

NCZ012>017-030>032-291700-
NORTH CENTRAL AND EASTERN NORTH CAROLINA

CITY           SKY/WX    TMP DP  RH WIND       PRES   REMARKS
ROANOKE RAPIDS CLOUDY    55  54  94 CALM      30.03S
RALEIGH        PTSUNNY   70  61  73 VRB5      29.99F
ELIZABETH CITY CLOUDY    58  55  90 N7        30.03R
AHOSKIE*       CLOUDY    57  55  92 CALM      30.03S
EDENTON*       CLOUDY    60  60  99 CALM      30.03F
CURRITUCK*     CLOUDY    57  57 100 N7        30.04S FOG
KILL DEVIL HLS CLOUDY    58  58 100 N6        30.00S
MANTEO         NOT AVBL
CAPE HATTERAS  CLOUDY    67  61  81 VRB6      29.98F
TARBORO*       CLOUDY    60  57  88 NE5       30.04S
GOLDSBORO      CLOUDY    63  63 100 NE8       30.01R
WASHINGTON     CLOUDY    60  58  93 E7        30.03S FOG
GREENVILLE     CLOUDY    61  59  94 N5        30.05R
NEW BERN       CLOUDY    63  60  90 NE10      30.03S
WILMINGTON     MOSUNNY   78  63  59 N13       29.98R
$$

VAZ048-291700-
ELSEWHERE

CITY           SKY/WX    TMP DP  RH WIND       PRES   REMARKS
HARRISBURG PA  CLOUDY    47  43  86 E9        30.07F
BALTIMORE      CLOUDY    49  47  93 E8        30.07S
ANNAPOLIS      CLOUDY    50  48  93 MISG      30.06F FOG
ANDREWS AFB    CLOUDY    50  48  95 E6        30.05F
PHILADELPHIA   LGT RAIN  52  40  63 E10       30.09S
HENDERSON NC   CLOUDY    62  62 100 E5        30.01F
GREENSBORO     PTSUNNY   76  51  41 N7        29.98F
ROCKY MOUNT    CLOUDY    60  57  89 E5        30.02F
$$

VAZ100-291700-
MARINE

STATION/POSITION TIME  TEMP    WIND        PRES    WAVE   SWELL
                       AIR SEA DIR/SP/G            HT/PER HT/PER
                 (UTC) (F)     (DEG/KT/KT) (MB)    (FT/S) (FT/S)
BRANDYWINE LGT   1500   51      70/ 18/ 23 1017.2F
CAPE MAY NJ      1500   51 57   70/ 14/ 20 1016.9F
LEWES DE         1500   52 54   70/ 13/ 20 1017.2F
15NM E FENWICK I 1550   51 51              1016.3S   5/ 6
OCEAN-CITY-INLET 1500   52 54   30/  6/  9 1016.3R
WACHAPREAGUE VA  1500   53 58   30/  8/ 13 1016.6R
THOMAS POINT MD  1600   49 57   40/  9/ 10 1019.5F
GOOSES REEF MD   1600   52 57   50/  8/ 10 1018.6F   1/ 2
COVE POINT MD    1500   50      60/  6/  9 1018.6R
SOLOMONS ISLAND  1500   51 59   40/  5/  6   N/A
BISHOPS HEAD MD  1500   53 57   40/  7/ 10 1016.8R
PINEY POINT MD   1500           70/  4/  5   N/A
POTOMAC MD       1600   52 59   60/  8/ 10 1016.2F   0
CAMBRIDGE MD     1500   52 60   30/  7/  9 1017.4R
LEWISETTA VA     1500   52 60   50/  5/  8 1017.4R
RAPPAHANNOCK LGT 1500           30/ 10/ 11 1017.4R
STINGRAY PT      1600   53 61   20/ 10/ 12 1017.3F   1/ 3
YORK RVR RNG VA  1500   54      40/  8/  9 1016.4R
YORKTOWN VA      1500   54 62   30/  6/  8 1016.8R
JAMESTOWN VA     1600   55 67   50/  4/  6   N/A     0
DOMINION TERM VA 1500   56      60/  6/  7 1016.9R
KIPTOPEKE VA     1500      59   30/  6/ 10   N/A
CHES BAY BRIDGE  1500   54 60  360/  9/ 10 1016.5R
CAPE HENRY VA    1500   54      10/ 11/ 12   N/A
CHESAPEAKE LGHT  1500   53      10/ 12/ 13 1017.1R
WILLOUBY STN VA  1500   54      30/  8/  9 1017.8R
CAPE HENRY BUOY  1512      55                N/A     4/ 7
CAPE CHARLES BUO 1556      56                N/A     4/ 6   3/ 6
OFFSHORE WE BUOY 1521      55                N/A     4/ 5   3/ 5
64NM E OF VA BCH 1550   54 54  350/  6/  8 1014.8S   4/ 7   3/ 7
DUCK PIER NC     1500   55 66  360/  9/ 11 1015.8R
44100 DUCK FRF   1524      58                N/A     4/ 6
44056 DUCK FRF   1511      58                N/A     4/ 5
OREGON INLET NC  1500   57 62  340/  8/ 13 1016.0R
HATTERAS NC      1500   62 69  360/ 15/ 18 1015.3R
DIAMOND SHLS NC  1550   63 70  360/ 16/ 21 1014.7F   3/ 5   2/10
CAPE LOOKOUT NC  1500   63      40/ 16/ 18 1015.6R
$$




USA.gov is the U.S. government's official web portal to all federal, state and local government web resources and services.